EW3714 Weather Reports


Display with metric or nautical units.
time (UTC)temp
F
wind
direction
speed
MPH
gust
MPH
rain 1hr
in
rain 24hr
in
rain mn
in
humidity
%
barometer
mb
20260507103355 60 135 2.0 3.0 0.00 0.00 0.00 86 1017.3
20260507102851 60 1 1.0 3.0 0.00 0.00 0.00 86 1016.8
20260507102348 60 57 3.0 4.0 0.00 0.00 0.00 86 1016.8
20260507101844 59 67 2.0 4.0 0.00 0.00 0.00 86 1017.2
20260507101344 60 74 2.0 6.0 0.00 0.00 0.00 86 1017.1
20260507100842 60 167 2.0 3.0 0.00 0.00 0.00 85 1016.8
20260507100340 60 63 3.0 4.0 0.00 0.00 0.00 86 1016.9
20260507095838 60 43 2.0 3.0 0.00 0.00 0.00 86 1016.8
20260507095334 60 111 2.0 4.0 0.00 0.00 0.00 85 1016.8
20260507094831 60 86 2.0 5.0 0.00 0.00 0.00 85 1016.8
20260507094327 60 95 2.0 4.0 0.00 0.00 0.00 85 1016.7
20260507093825 60 62 2.0 4.0 0.00 0.00 0.00 85 1016.6
20260507093324 60 68 2.0 3.0 0.00 0.00 0.00 85 1016.8
20260507092821 60 65 2.0 2.0 0.00 0.00 0.00 85 1016.8
20260507092317 60 47 2.0 3.0 0.00 0.00 0.00 84 1017.0
20260507091813 60 92 1.0 3.0 0.00 0.00 0.00 84 1016.8
20260507091311 60 35 2.0 3.0 0.00 0.00 0.00 83 1016.9
20260507090811 60 82 2.0 2.0 0.00 0.00 0.00 84 1016.8
20260507090308 60 98 2.0 3.0 0.00 0.00 0.00 83 1016.6
20260507085805 60 52 3.0 3.0 0.00 0.00 0.00 83 1016.4
20260507085302 60 86 2.0 3.0 0.00 0.00 0.00 83 1016.4
20260507084759 60 64 2.0 4.0 0.00 0.00 0.00 83 1016.5
20260507084255 60 113 2.0 4.0 0.00 0.00 0.00 83 1016.1
20260507083753 61 79 2.0 2.0 0.00 0.00 0.00 83 1016.1
20260507083249 60 101 2.0 2.0 0.00 0.00 0.00 83 1016.4
20260507082745 61 62 2.0 3.0 0.00 0.00 0.00 83 1016.2
20260507082241 61 70 1.0 2.0 0.00 0.00 0.00 83 1016.4
20260507081738 61 67 1.0 2.0 0.00 0.00 0.00 83 1016.0
20260507081234 61 89 0.0 3.0 0.00 0.00 0.00 82 1016.0
20260507080731 61 55 2.0 3.0 0.00 0.00 0.00 83 1015.8
20260507080227 61 93 3.0 3.0 0.00 0.00 0.00 82 1015.7
20260507075722 61 81 0.0 3.0 0.00 0.00 0.00 82 1016.2
20260507075219 61 89 2.0 2.0 0.00 0.00 0.00 82 1015.9
20260507074715 61 48 2.0 3.0 0.00 0.00 0.00 82 1015.5
20260507074214 61 65 1.0 2.0 0.00 0.00 0.00 82 1015.5
20260507073710 61 72 2.0 3.0 0.00 0.00 0.00 81 1015.6
20260507073206 61 76 2.0 2.0 0.00 0.00 0.00 81 1016.0
20260507072705 61 112 2.0 3.0 0.00 0.00 0.00 81 1016.1
20260507072201 61 82 3.0 3.0 0.00 0.00 0.00 81 1015.8
20260507071659 61 71 2.0 3.0 0.00 0.00 0.00 80 1015.8
20260507071155 61 104 1.0 3.0 0.00 0.00 0.00 81 1015.8
20260507070652 61 78 2.0 4.0 0.00 0.00 0.00 80 1015.9
20260507070149 61 85 2.0 3.0 0.00 0.00 0.00 80 1016.2
20260507065645 61 54 3.0 3.0 0.00 0.00 0.00 80 1016.1
20260507065142 61 83 1.0 2.0 0.00 0.00 0.00 80 1015.9
20260507064640 61 80 1.0 4.0 0.00 0.00 0.00 80 1015.8
20260507064138 62 58 2.0 3.0 0.00 0.00 0.00 80 1015.7
20260507063636 62 75 2.0 3.0 0.00 0.00 0.00 80 1015.7
20260507063132 62 242 1.0 3.0 0.00 0.00 0.00 79 1015.3
20260507062629 62 136 0.0 3.0 0.00 0.00 0.00 79 1015.5
20260507062127 62 60 2.0 3.0 0.00 0.00 0.00 80 1016.0
20260507061624 62 82 2.0 2.0 0.00 0.00 0.00 79 1015.9
20260507061122 62 108 2.0 3.0 0.00 0.00 0.00 79 1015.9
20260507060620 62 42 2.0 3.0 0.00 0.00 0.00 79 1015.7
20260507060116 62 62 2.0 3.0 0.00 0.00 0.00 80 1015.6
20260507055612 62 66 1.0 2.0 0.00 0.00 0.00 79 1015.8
20260507055108 62 70 2.0 3.0 0.00 0.00 0.00 79 1016.0
20260507054604 62 141 2.0 3.0 0.00 0.00 0.00 79 1015.9
20260507054101 62 76 2.0 3.0 0.00 0.00 0.00 79 1015.9
20260507053559 62 26 3.0 3.0 0.00 0.00 0.00 79 1015.9
20260507053058 62 107 1.0 2.0 0.00 0.00 0.00 79 1015.7
20260507052555 62 72 1.0 2.0 0.00 0.00 0.00 78 1015.7
20260507052051 62 124 1.0 4.0 0.00 0.00 0.00 79 1015.7
20260507051549 62 77 2.0 2.0 0.00 0.00 0.00 79 1015.6
20260507051046 62 141 2.0 5.0 0.00 0.00 0.00 78 1015.6
20260507050542 62 58 2.0 4.0 0.00 0.00 0.00 79 1015.4
20260507050039 62 81 3.0 3.0 0.00 0.00 0.00 79 1015.6
20260507045536 62 67 2.0 3.0 0.00 0.00 0.00 78 1015.8
20260507045033 62 83 3.0 3.0 0.00 0.00 0.00 79 1015.6
20260507044529 63 180 3.0 3.0 0.00 0.00 0.00 78 1015.6
20260507044026 63 60 2.0 4.0 0.00 0.00 0.00 79 1015.8
20260507043522 63 125 2.0 2.0 0.00 0.00 0.00 79 1015.8
20260507043020 62 51 2.0 3.0 0.00 0.00 0.00 80 1015.8
20260507042515 63 89 2.0 4.0 0.00 0.00 0.00 79 1016.0
20260507042011 63 309 1.0 2.0 0.00 0.00 0.00 80 1015.5
20260507041508 63 48 2.0 3.0 0.00 0.00 0.00 80 1015.4
20260507041005 63 57 2.0 2.0 0.00 0.00 0.00 80 1015.4
20260507040501 63 56 2.0 3.0 0.00 0.00 0.00 80 1015.7
20260507035957 63 86 2.0 3.0 0.00 0.00 0.00 80 1015.8
20260507035454 63 52 2.0 4.0 0.00 0.00 0.00 80 1015.9
20260507034950 63 73 2.0 3.0 0.00 0.00 0.00 80 1015.7
20260507034447 63 128 2.0 3.0 0.00 0.00 0.00 80 1015.7
20260507033945 63 130 1.0 3.0 0.00 0.00 0.00 80 1015.6
20260507033443 63 135 0.0 3.0 0.00 0.00 0.00 79 1015.6
20260507032940 63 47 3.0 3.0 0.00 0.00 0.00 80 1015.5
20260507032437 63 161 0.0 3.0 0.00 0.00 0.00 79 1015.6
20260507031933 63 198 3.0 4.0 0.00 0.00 0.00 79 1015.6
20260507031429 63 92 2.0 3.0 0.00 0.00 0.00 79 1015.8
20260507030926 63 62 2.0 3.0 0.00 0.00 0.00 79 1015.8
20260507030424 63 64 2.0 3.0 0.00 0.00 0.00 79 1015.6
20260507025921 63 94 2.0 4.0 0.00 0.00 0.00 79 1015.5
20260507025418 63 98 0.0 4.0 0.00 0.00 0.00 79 1015.3
20260507024915 63 78 2.0 4.0 0.00 0.00 0.00 79 1015.1
20260507024413 63 89 0.0 4.0 0.00 0.00 0.00 79 1015.1
20260507023908 63 79 2.0 4.0 0.00 0.00 0.00 79 1015.1
20260507023405 64 95 0.0 2.0 0.00 0.00 0.00 79 1014.9
20260507022903 64 63 2.0 4.0 0.00 0.00 0.00 79 1014.8
20260507022359 64 59 2.0 3.0 0.00 0.00 0.00 79 1014.9
20260507021855 64 73 1.0 3.0 0.00 0.00 0.00 78 1014.8
20260507021351 64 155 1.0 3.0 0.00 0.00 0.00 79 1014.6
20260507020849 64 63 3.0 4.0 0.00 0.00 0.00 79 1014.6
20260507020345 64 34 3.0 3.0 0.00 0.00 0.00 78 1014.9
20260507015842 64 119 3.0 3.0 0.00 0.00 0.00 78 1014.5
20260507015340 64 82 1.0 2.0 0.00 0.00 0.00 78 1014.1
20260507014837 64 74 2.0 6.0 0.00 0.00 0.00 79 1014.1
20260507014333 64 60 2.0 2.0 0.00 0.00 0.00 78 1014.1
20260507013830 65 36 3.0 4.0 0.00 0.00 0.00 78 1014.1
20260507013327 64 55 0.0 3.0 0.00 0.00 0.00 78 1014.0
20260507012825 64 84 2.0 3.0 0.00 0.00 0.00 78 1013.9
20260507012320 64 130 2.0 4.0 0.00 0.00 0.00 78 1013.5
20260507011817 65 47 2.0 3.0 0.00 0.00 0.00 77 1013.6
20260507011314 65 69 1.0 3.0 0.00 0.00 0.00 77 1013.5
20260507010814 65 59 2.0 4.0 0.00 0.00 0.00 78 1013.6
20260507010310 65 91 2.0 2.0 0.00 0.00 0.00 77 1013.5
20260507005807 65 64 2.0 2.0 0.00 0.00 0.00 76 1013.8
20260507005305 64 95 0.0 2.0 0.00 0.00 0.00 77 1013.3
20260507004800 64 111 2.0 4.0 0.00 0.00 0.00 77 1013.5
20260507004258 64 61 2.0 5.0 0.00 0.00 0.00 77 1013.2
20260507003754 65 57 3.0 4.0 0.00 0.00 0.00 77 1013.3
20260507003249 65 92 2.0 3.0 0.00 0.00 0.00 76 1013.3
20260507002745 65 54 3.0 3.0 0.00 0.00 0.00 76 1013.0
20260507002241 65 12 0.0 2.0 0.00 0.00 0.00 76 1013.2
20260507001738 65 44 1.0 3.0 0.00 0.00 0.00 76 1013.3
20260507001236 64 88 2.0 3.0 0.00 0.00 0.00 77 1013.1
20260507000732 65 70 2.0 4.0 0.00 0.00 0.00 76 1013.2
20260507000228 65 68 2.0 3.0 0.00 0.00 0.00 76 1013.1
20260506235725 65 35 3.0 3.0 0.00 0.00 0.00 76 1013.0
20260506235220 65 80 2.0 3.0 0.00 0.00 0.00 76 1012.9
20260506234717 65 96 2.0 6.0 0.00 0.00 0.00 76 1013.2
20260506234215 65 101 1.0 3.0 0.00 0.00 0.00 75 1013.0
20260506233712 65 64 1.0 2.0 0.00 0.00 0.00 75 1012.9
20260506233209 65 38 3.0 4.0 0.00 0.00 0.00 75 1013.0
20260506232706 65 114 3.0 4.0 0.00 0.00 0.00 75 1013.0
20260506232200 66 74 3.0 3.0 0.00 0.00 0.00 75 1012.8
20260506231658 66 35 2.0 4.0 0.00 0.00 0.00 73 1012.9
20260506231156 66 88 2.0 3.0 0.00 0.00 0.00 74 1012.7
20260506230652 66 25 1.0 2.0 0.00 0.00 0.00 74 1012.9
20260506230149 65 88 1.0 3.0 0.00 0.00 0.00 74 1013.1
20260506225646 65 55 3.0 3.0 0.00 0.00 0.00 74 1012.9
20260506225143 65 186 1.0 3.0 0.00 0.00 0.00 75 1012.8
20260506224639 65 39 2.0 3.0 0.00 0.00 0.00 74 1012.9
20260506224136 65 95 2.0 4.0 0.00 0.00 0.00 75 1012.8
20260506223632 65 109 1.0 4.0 0.00 0.00 0.00 75 1013.0
20260506223128 65 72 2.0 4.0 0.00 0.00 0.00 75 1012.8
20260506222625 67 17 3.0 5.0 0.00 0.00 0.00 73 1012.7
20260506222122 66 124 0.0 4.0 0.00 0.00 0.00 73 1012.8
20260506221619 67 45 3.0 4.0 0.00 0.00 0.00 72 1012.6
20260506221117 66 119 2.0 4.0 0.00 0.00 0.00 72 1013.0
20260506220614 67 120 3.0 4.0 0.00 0.00 0.00 72 1012.9
20260506220109 68 9 5.0 5.0 0.00 0.00 0.00 71 1012.8
20260506215606 68 75 2.0 5.0 0.00 0.00 0.00 70 1012.8
20260506215101 68 103 0.0 2.0 0.00 0.00 0.00 70 1012.7
20260506214558 69 62 2.0 4.0 0.00 0.00 0.00 70 1012.6
20260506214056 68 94 1.0 4.0 0.00 0.00 0.00 71 1012.6
20260506213554 68 39 3.0 4.0 0.00 0.00 0.00 71 1012.5
20260506213051 68 67 1.0 3.0 0.00 0.00 0.00 70 1012.3
20260506212547 68 57 2.0 4.0 0.00 0.00 0.00 69 1012.5
20260506212042 69 39 2.0 3.0 0.00 0.00 0.00 69 1012.4
20260506211538 69 0 1.0 3.0 0.00 0.00 0.00 69 1012.6
20260506211036 68 242 2.0 3.0 0.00 0.00 0.00 69 1012.6
20260506210532 68 36 0.0 4.0 0.00 0.00 0.00 70 1012.8
20260506210029 70 43 2.0 4.0 0.00 0.00 0.00 68 1012.9
20260506205526 72 31 2.0 4.0 0.00 0.00 0.00 65 1012.8
20260506205021 71 314 2.0 4.0 0.00 0.00 0.00 67 1012.9
20260506204519 72 197 2.0 4.0 0.00 0.00 0.00 66 1012.9
20260506204016 73 236 0.0 4.0 0.00 0.00 0.00 66 1013.0
20260506203514 72 149 1.0 3.0 0.00 0.00 0.00 66 1012.9
20260506203010 73 36 2.0 5.0 0.00 0.00 0.00 66 1012.7
20260506202508 74 165 0.0 4.0 0.00 0.00 0.00 66 1012.8
20260506202004 72 109 2.0 4.0 0.00 0.00 0.00 68 1012.7
20260506201502 73 284 0.0 3.0 0.00 0.00 0.00 67 1012.6
20260506200958 72 10 1.0 2.0 0.00 0.00 0.00 70 1012.6
20260506200454 71 130 2.0 5.0 0.00 0.00 0.00 71 1012.6
20260506195951 71 85 0.0 4.0 0.00 0.00 0.00 72 1012.5
20260506195448 71 32 1.0 4.0 0.00 0.00 0.00 73 1012.5
20260506194944 72 42 3.0 4.0 0.00 0.00 0.00 72 1012.3
20260506194442 73 31 0.0 3.0 0.00 0.00 0.00 71 1012.2
20260506193938 72 99 2.0 5.0 0.00 0.00 0.00 71 1012.3
20260506193436 75 189 2.0 4.0 0.00 0.00 0.00 69 1012.2
20260506192932 76 94 0.0 3.0 0.00 0.00 0.00 69 1012.0
20260506192429 77 186 2.0 4.0 0.00 0.00 0.00 68 1012.0
20260506191926 78 47 2.0 3.0 0.00 0.00 0.00 68 1012.0
20260506191422 78 56 0.0 2.0 0.00 0.00 0.00 69 1012.1
20260506190919 77 66 1.0 3.0 0.00 0.00 0.00 70 1012.3
20260506190416 79 118 1.0 2.0 0.00 0.00 0.00 66 1012.4
20260506185913 78 79 0.0 4.0 0.00 0.00 0.00 68 1012.2
20260506185410 80 65 2.0 3.0 0.00 0.00 0.00 64 1012.4
20260506184907 80 161 1.0 3.0 0.00 0.00 0.00 65 1012.3
20260506184404 80 172 0.0 2.0 0.00 0.00 0.00 64 1012.1
20260506183901 81 55 0.0 2.0 0.00 0.00 0.00 64 1012.1
20260506183356 79 150 2.0 3.0 0.00 0.00 0.00 66 1012.2
20260506182854 80 109 2.0 2.0 0.00 0.00 0.00 65 1012.2
20260506182351 78 171 2.0 4.0 0.00 0.00 0.00 66 1012.1
20260506181848 81 94 1.0 2.0 0.00 0.00 0.00 62 1012.2
20260506181346 82 96 2.0 2.0 0.00 0.00 0.00 60 1012.1
20260506180843 82 160 0.0 2.0 0.00 0.00 0.00 61 1012.0
20260506180339 80 72 1.0 3.0 0.00 0.00 0.00 62 1012.0
20260506175835 81 78 1.0 2.0 0.00 0.00 0.00 61 1012.0
20260506175332 80 116 1.0 2.0 0.00 0.00 0.00 63 1012.1
20260506174829 79 73 0.0 2.0 0.00 0.00 0.00 65 1011.8
20260506174327 78 128 2.0 3.0 0.00 0.00 0.00 65 1012.0
20260506173824 77 246 1.0 2.0 0.00 0.00 0.00 65 1012.1
20260506173321 77 83 1.0 2.0 0.00 0.00 0.00 67 1012.1
20260506172818 76 31 1.0 2.0 0.00 0.00 0.00 68 1012.2
20260506172314 75 229 1.0 2.0 0.00 0.00 0.00 67 1012.3
20260506171812 75 81 1.0 2.0 0.00 0.00 0.00 68 1012.3
20260506171309 73 297 2.0 4.0 0.00 0.00 0.00 71 1012.3
20260506170807 73 208 2.0 4.0 0.00 0.00 0.00 72 1012.1
20260506170302 73 86 1.0 3.0 0.00 0.00 0.00 73 1012.0
20260506165802 71 43 2.0 2.0 0.00 0.00 0.00 76 1012.2
20260506165259 69 38 2.0 2.0 0.00 0.00 0.00 78 1012.3
20260506164755 68 15 1.0 4.0 0.00 0.00 0.00 81 1012.7
20260506164252 67 62 2.0 3.0 0.00 0.00 0.00 83 1012.8
20260506163749 66 53 2.0 3.0 0.00 0.00 0.00 85 1013.0
20260506163244 66 15 3.0 3.0 0.00 0.00 0.00 86 1013.0
20260506162740 65 359 2.0 3.0 0.00 0.00 0.00 86 1013.0
20260506162238 65 40 3.0 3.0 0.00 0.00 0.00 86 1013.6
20260506161735 66 345 1.0 6.0 0.00 0.00 0.00 85 1013.9
20260506161232 66 179 8.0 9.0 0.00 0.00 0.00 85 1013.9
20260506160730 67 94 3.0 5.0 0.00 0.00 0.00 85 1013.6
20260506160226 67 8 1.0 5.0 0.00 0.00 0.00 87 1013.5
20260506155725 67 65 2.0 4.0 0.00 0.00 0.00 88 1013.3
20260506155221 67 352 2.0 4.0 0.00 0.00 0.00 88 1013.5
20260506153323 70 54 1.0 4.0 0.00 0.00 0.00 83 1012.8
20260506152820 71 66 1.0 3.0 0.00 0.00 0.00 83 1012.8
20260506152317 74 339 4.0 5.0 0.00 0.00 0.00 78 1012.7
20260506151816 79 69 1.0 2.0 0.00 0.00 0.00 84 1011.8
20260506151312 79 134 0.0 2.0 0.00 0.00 0.00 84 1011.9
20260506150809 79 89 0.0 3.0 0.00 0.00 0.00 84 1011.8
20260506150306 79 76 1.0 2.0 0.00 0.00 0.00 84 1011.8
20260506145803 79 87 1.0 2.0 0.00 0.00 0.00 84 1011.6
20260506145259 79 101 1.0 3.0 0.00 0.00 0.00 84 1011.3
20260506144757 79 98 0.0 2.0 0.00 0.00 0.00 84 1011.1
20260506144254 79 84 1.0 2.0 0.00 0.00 0.00 84 1011.0
20260506143751 79 66 2.0 2.0 0.00 0.00 0.00 84 1011.0
20260506143248 78 89 0.0 2.0 0.00 0.00 0.00 84 1010.8
20260506142747 78 88 1.0 2.0 0.00 0.00 0.00 85 1010.9
20260506142245 78 115 0.0 2.0 0.00 0.00 0.00 85 1010.7
20260506141743 78 58 1.0 3.0 0.00 0.00 0.00 86 1010.4
20260506141241 77 131 0.0 2.0 0.00 0.00 0.00 86 1010.6
20260506140738 77 112 1.0 2.0 0.00 0.00 0.00 87 1010.9
20260506140235 77 84 1.0 2.0 0.00 0.00 0.00 87 1011.0
20260506135731 77 91 1.0 2.0 0.00 0.00 0.00 87 1011.1
20260506135228 77 53 2.0 2.0 0.00 0.00 0.00 87 1010.8
20260506134725 77 92 0.0 2.0 0.00 0.00 0.00 88 1010.4
20260506134221 77 78 1.0 2.0 0.00 0.00 0.00 89 1010.4
20260506133718 77 76 1.0 2.0 0.00 0.00 0.00 89 1010.5
20260506133215 76 109 2.0 2.0 0.00 0.00 0.00 89 1010.4
20260506132712 76 141 1.0 2.0 0.00 0.00 0.00 89 1010.2
20260506132209 76 55 1.0 1.0 0.00 0.00 0.00 89 1010.1
20260506131707 76 75 1.0 2.0 0.00 0.00 0.00 89 1010.0
20260506131202 76 162 1.0 2.0 0.00 0.00 0.00 89 1010.1
20260506130700 76 142 1.0 2.0 0.00 0.00 0.00 89 1010.1
20260506130157 76 63 1.0 2.0 0.00 0.00 0.00 90 1010.2
20260506125655 76 78 1.0 2.0 0.00 0.00 0.00 90 1010.0
20260506125152 76 157 1.0 2.0 0.00 0.00 0.00 90 1009.9
20260506124650 75 83 0.0 2.0 0.00 0.00 0.00 90 1009.9
20260506124148 75 89 0.0 2.0 0.00 0.00 0.00 91 1009.9
20260506123645 75 82 2.0 2.0 0.00 0.00 0.00 91 1009.8
20260506123144 75 101 2.0 2.0 0.00 0.00 0.00 91 1009.9
20260506122640 75 89 2.0 2.0 0.00 0.00 0.00 91 1009.8
20260506122138 75 99 2.0 2.0 0.00 0.00 0.00 91 1009.8
20260506121635 75 85 1.0 2.0 0.00 0.00 0.00 92 1009.9
20260506121131 75 72 1.0 2.0 0.00 0.00 0.00 91 1009.8
20260506120629 75 83 2.0 2.0 0.00 0.00 0.00 91 1009.8
20260506120126 75 102 2.0 2.0 0.00 0.00 0.00 91 1009.8
20260506115625 75 93 2.0 2.0 0.00 0.00 0.00 91 1009.7
20260506115123 75 79 2.0 2.0 0.00 0.00 0.00 91 1009.6
20260506114620 75 171 1.0 2.0 0.00 0.00 0.00 91 1009.5
20260506114118 75 89 0.0 2.0 0.00 0.00 0.00 91 1009.6
20260506113616 75 120 1.0 2.0 0.00 0.00 0.00 91 1009.7
20260506113113 75 74 2.0 2.0 0.00 0.00 0.00 90 1009.8
20260506112609 75 88 2.0 2.0 0.00 0.00 0.00 90 1009.9
20260506112107 75 97 1.0 2.0 0.00 0.00 0.00 90 1009.8
20260506111604 75 84 1.0 2.0 0.00 0.00 0.00 90 1009.8
20260506111102 75 93 1.0 2.0 0.00 0.00 0.00 90 1009.7
20260506110559 75 95 2.0 2.0 0.00 0.00 0.00 90 1009.6
20260506110056 75 73 2.0 2.0 0.00 0.00 0.00 90 1009.8
20260506105552 75 61 3.0 3.0 0.00 0.00 0.00 90 1009.7
20260506105050 75 82 1.0 2.0 0.00 0.00 0.00 90 1009.6
20260506104548 75 85 1.0 2.0 0.00 0.00 0.00 90 1009.4
20260506104045 75 86 1.0 2.0 0.00 0.00 0.00 90 1009.5